This is the latest recevied weather packets stored in our database for station/object K4GDX. If no packets are shown the sender has not sent any weather packets the latest 10 day(s).
| Time | Temp. | Humidity | Pressure | Rain* | Wind** | Luminosity | Snow |
|---|---|---|---|---|---|---|---|
| 1777507192 | 26.67° C | 74% | 1009.2 hPa | 0 mm | - | 0 W/m² | - |
| 1777506898 | 26.67° C | 74% | 1009 hPa | 0 mm | - | 0 W/m² | - |
| 1777506594 | 26.67° C | 74% | 1008.9 hPa | 0 mm | - | 9 W/m² | - |
| 1777506286 | 26.67° C | 73% | 1008.9 hPa | 0 mm | - | 12 W/m² | - |
| 1777505986 | 26.67° C | 73% | 1009 hPa | 0 mm | - | 19 W/m² | - |
| 1777505686 | 27.22° C | 73% | 1009.1 hPa | 0 mm | - | 30 W/m² | - |
| 1777505382 | 27.22° C | 72% | 1009 hPa | 0 mm | - | 44 W/m² | - |
| 1777505084 | 27.22° C | 72% | 1008.9 hPa | 0 mm | - | 62 W/m² | - |
| 1777504782 | 27.78° C | 72% | 1009 hPa | 0 mm | - | 63 W/m² | - |
| 1777504484 | 27.78° C | 72% | 1009 hPa | 0 mm | - | 67 W/m² | - |
| 1777504179 | 27.78° C | 71% | 1009 hPa | 0 mm | - | 81 W/m² | - |
| 1777503878 | 27.78° C | 71% | 1009 hPa | 0 mm | - | 91 W/m² | - |
| 1777503580 | 28.33° C | 71% | 1008.8 hPa | 0 mm | - | 118 W/m² | - |
| 1777503272 | 28.33° C | 71% | 1008.9 hPa | 0 mm | - | 132 W/m² | - |
| 1777502972 | 28.33° C | 70% | 1008.9 hPa | 0 mm | - | 100 W/m² | - |
| 1777502661 | 28.89° C | 70% | 1008.9 hPa | 0 mm | - | 190 W/m² | - |
| 1777502362 | 28.89° C | 70% | 1008.8 hPa | 0 mm | - | 225 W/m² | - |
| 1777502052 | 28.89° C | 70% | 1008.8 hPa | 0 mm | - | 285 W/m² | - |
| 1777501754 | 28.89° C | 69% | 1008.8 hPa | 0 mm | - | 163 W/m² | - |
| 1777501448 | 28.89° C | 68% | 1008.7 hPa | 0 mm | - | 107 W/m² | - |
| 1777501150 | 29.44° C | 66% | 1008.7 hPa | 0 mm | - | 93 W/m² | - |
| 1777500845 | 30.56° C | 64% | 1008.8 hPa | 0 mm | - | 88 W/m² | - |
| 1777500544 | 31.11° C | 62% | 1008.8 hPa | 0 mm | - | 107 W/m² | - |
| 1777500244 | 32.22° C | 60% | 1008.8 hPa | 0 mm | - | 436 W/m² | - |
| 1777499941 | 33.33° C | 56% | 1008.8 hPa | 0 mm | - | 413 W/m² | - |
* Rain latest hour (hover to see other rain measurements)
** Current wind speed in m/s (hover to see current wind gust speed)